New River MCAS, NC

4:38 AM EDT on May 27, 2017 (GMT -0400)
New River Marine Corps Air Station

Weather History for KNCA - March, 2014

Change the Weather History Date:

Tuesday, March 4, 2014

  Actual Average Record
Temperature  
Mean Temperature 26 °F -  
Max Temperature 32 °F 60 °F 79 °F (2004)
Min Temperature 23 °F 39 °F 18 °F (2009)
Degree Days  
Heating Degree Days 38    
Moisture  
Dew Point 22 °F    
Average Humidity 82    
Maximum Humidity 89    
Minimum Humidity 75    
Precipitation  
Precipitation 0.00 in - - ()
Sea Level Pressure  
Sea Level Pressure 30.24 in    
Wind  
Wind Speed 14 mph (North)    
Max Wind Speed 20 mph    
Max Gust Speed 26 mph    
Visibility 8 miles    
Events Rain    
Averages and records for this station are not official NWS values.
T = Trace of Precipitation, MM = Missing Value Source: NWS Daily Summary

Daily Weather History Graph

Daily Weather History Graph

Search for Another Location

Airport or City:

Trip Planner

Search our weather history database for the weather conditions in past years. The results will help you decide how hot, cold, wet, or windy it might be!

Date:

Astronomy

Mar. 04, 2014 Rise Set
Actual Time 6:35 AM EST 6:08 PM EST
Civil Twilight 6:09 AM EST 6:33 PM EST
Nautical Twilight 5:40 AM EST 7:02 PM EST
Astronomical Twilight 5:11 AM EST 7:32 PM EST
Moon 8:29 AM EST (3/4) 10:02 PM EST (3/4)
Length of Visible Light 12h 23m
Length of Day
11h 33m
Waxing Crescent, 14% of the Moon is Illuminated
Mar 4
Waxing Crescent
Mar 8
First Quarter
Mar 16
Full
Mar 23
Last Quarter
Mar 30
New

Hourly Weather History & Observations

Time (EST) Temp. Windchill Dew Point Humidity Pressure Visibility Wind Dir Wind Speed Gust Speed Precip Events Conditions
12:56 AM 26.1 °F 13.1 °F 21.9 °F 84% 30.22 in 10.0 mi North 17.3 mph 21.9 mph N/A   Overcast
1:56 AM 26.1 °F 12.3 °F 21.0 °F 81% 30.22 in 10.0 mi North 19.6 mph 26.5 mph N/A   Overcast
2:56 AM 26.1 °F 14.5 °F 21.0 °F 81% 30.23 in 10.0 mi North 13.8 mph 21.9 mph N/A   Overcast
3:27 AM 25.0 °F 10.9 °F 19.9 °F 81% 30.21 in 10.0 mi North 19.6 mph 25.3 mph N/A   Overcast
3:56 AM 25.0 °F 12.2 °F 19.0 °F 78% 30.24 in 10.0 mi North 16.1 mph 23.0 mph N/A   Overcast
4:56 AM 24.1 °F 13.1 °F 19.0 °F 81% 30.26 in 10.0 mi North 11.5 mph - N/A   Overcast
5:46 AM 23.0 °F 13.1 °F 17.1 °F 78% 30.27 in 10.0 mi North 9.2 mph - N/A   Scattered Clouds
5:56 AM 23.0 °F 12.4 °F 18.0 °F 81% 30.28 in 10.0 mi North 10.4 mph - N/A   Mostly Cloudy
6:07 AM 23.0 °F 11.1 °F 17.1 °F 78% 30.27 in 10.0 mi North 12.7 mph - N/A   Mostly Cloudy
6:56 AM 23.0 °F 10.6 °F 17.1 °F 78% 30.27 in 10.0 mi North 13.8 mph - N/A   Overcast
7:32 AM 23.0 °F 10.6 °F 17.1 °F 78% 30.25 in 10.0 mi North 13.8 mph - N/A   Overcast
7:39 AM 23.0 °F 10.6 °F 17.1 °F 78% 30.25 in 10.0 mi North 13.8 mph - N/A   Overcast
7:56 AM 24.1 °F 15.2 °F 18.0 °F 77% 30.27 in 10.0 mi North 8.1 mph - N/A   Overcast
8:09 AM 24.1 °F 13.1 °F 18.0 °F 77% 30.27 in 10.0 mi North 11.5 mph - N/A   Overcast
8:19 AM 24.1 °F 12.5 °F 18.0 °F 77% 30.25 in 10.0 mi North 12.7 mph - N/A   Overcast
8:56 AM 25.0 °F 13.6 °F 19.0 °F 78% 30.29 in 10.0 mi North 12.7 mph - N/A   Overcast
9:56 AM 27.0 °F 16.1 °F 21.0 °F 78% 30.29 in 8.0 mi North 12.7 mph - N/A   Overcast
10:24 AM 27.0 °F 15.6 °F 21.0 °F 78% 30.28 in 10.0 mi North 13.8 mph 19.6 mph N/A   Overcast
10:56 AM 28.0 °F 18.6 °F 21.9 °F 78% 30.29 in 10.0 mi North 10.4 mph - N/A   Overcast
11:46 AM 28.9 °F 18.6 °F 21.9 °F 75% 30.27 in 10.0 mi North 12.7 mph - N/A   Overcast
11:56 AM 28.0 °F 18.1 °F 21.9 °F 78% 30.27 in 9.0 mi North 11.5 mph - N/A   Overcast
12:56 PM 28.0 °F 17.0 °F 24.1 °F 85% 30.25 in 5.0 mi North 13.8 mph - N/A   Overcast
1:18 PM 28.0 °F 18.1 °F 25.0 °F 88% 30.24 in 2.0 mi North 11.5 mph - N/A   Overcast
1:30 PM 28.0 °F 18.1 °F 25.0 °F 88% 30.23 in 1.8 mi North 11.5 mph - 0.00 in Rain Light Freezing Rain
1:56 PM 28.9 °F 20.4 °F 26.1 °F 89% 30.24 in 2.0 mi North 9.2 mph - 0.00 in   Overcast
2:56 PM 30.0 °F 21.1 °F 27.0 °F 88% 30.21 in 2.0 mi NNW 10.4 mph - N/A   Overcast
3:56 PM 30.0 °F 20.0 °F 27.0 °F 88% 30.21 in 2.0 mi North 12.7 mph - N/A   Overcast
4:32 PM 30.9 °F 22.8 °F 28.0 °F 89% 30.20 in 7.0 mi NNW 9.2 mph - N/A   Overcast
4:56 PM 30.9 °F 20.7 °F 28.0 °F 89% 30.21 in 5.0 mi North 13.8 mph - N/A   Overcast
5:56 PM 30.9 °F 21.7 °F 27.0 °F 85% 30.22 in 6.0 mi North 11.5 mph - N/A   Overcast
6:56 PM 30.9 °F 21.2 °F 27.0 °F 85% 30.22 in 8.0 mi North 12.7 mph - N/A   Overcast
7:56 PM 30.9 °F 22.8 °F 27.0 °F 85% 30.24 in 9.0 mi NNW 9.2 mph - N/A   Overcast
8:56 PM 30.9 °F 21.7 °F 27.0 °F 85% 30.22 in 9.0 mi North 11.5 mph - N/A   Overcast
9:56 PM 30.9 °F 22.8 °F 28.0 °F 89% 30.21 in 9.0 mi North 9.2 mph - N/A   Overcast
10:56 PM 30.9 °F 22.2 °F 28.0 °F 89% 30.20 in 8.0 mi North 10.4 mph - N/A   Overcast
11:56 PM 32.0 °F 24.2 °F 28.0 °F 85% 30.18 in 8.0 mi North 9.2 mph - N/A   Overcast